EW6390 Weather Reports


Display with metric or nautical units.
time (UTC)temp
F
wind
direction
speed
MPH
gust
MPH
rain 1hr
in
rain 24hr
in
rain mn
in
humidity
%
barometer
mb
20260906035807 74 229 0.0 0.0 0.00 0.00 0.00 88 1012.5
20260906035306 74 229 0.0 0.0 0.00 0.00 0.00 87 1012.6
20260906034807 74 229 0.0 0.0 0.00 0.00 0.00 87 1012.8
20260906034305 74 229 0.0 1.0 0.00 0.00 0.00 87 1012.8
20260906033806 74 229 0.0 1.0 0.00 0.00 0.00 87 1012.8
20260906033305 74 229 0.0 0.0 0.00 0.00 0.00 87 1012.9
20260906032807 75 229 0.0 0.0 0.00 0.00 0.00 86 1012.8
20260906032306 75 229 0.0 0.0 0.00 0.00 0.00 86 1012.8
20260906031808 75 229 0.0 0.0 0.00 0.00 0.00 86 1012.9
20260906031804 75 229 0.0 0.0 0.00 0.00 0.00 87 1012.8
20260906030804 74 229 0.0 0.0 0.00 0.00 0.00 86 1012.7
20260906030302 75 229 0.0 0.0 0.00 0.00 0.00 86 1012.7
20260906025802 75 229 0.0 0.0 0.00 0.00 0.00 86 1012.7
20260906025306 75 229 0.0 0.0 0.00 0.00 0.00 85 1012.8
20260906024804 75 229 0.0 0.0 0.00 0.00 0.00 85 1012.8
20260906024302 75 229 0.0 0.0 0.00 0.00 0.00 85 1012.7
20260906023802 75 229 0.0 0.0 0.00 0.00 0.00 85 1012.8
20260906023303 75 229 0.0 0.0 0.00 0.00 0.00 84 1012.8
20260906022801 76 229 0.0 0.0 0.00 0.00 0.00 83 1012.8
20260906022301 76 229 0.0 0.0 0.00 0.00 0.00 83 1012.7
20260906021801 76 229 0.0 0.0 0.00 0.00 0.00 83 1012.7
20260906021301 76 229 0.0 1.0 0.00 0.00 0.00 83 1012.6
20260906020800 76 229 0.0 1.0 0.00 0.00 0.00 83 1012.7
20260906020300 76 229 0.0 0.0 0.00 0.00 0.00 83 1012.7
20260906015800 76 212 0.0 0.0 0.00 0.00 0.00 82 1012.6
20260906015257 76 212 0.0 3.0 0.00 0.00 0.00 82 1012.6
20260906014757 76 229 0.0 3.0 0.00 0.00 0.00 81 1012.5
20260906014257 76 226 0.0 0.0 0.00 0.00 0.00 81 1012.3
20260906013756 76 226 0.0 0.0 0.00 0.00 0.00 80 1012.3
20260906013255 76 226 0.0 0.0 0.00 0.00 0.00 80 1012.3
20260906012754 76 225 0.0 0.0 0.00 0.00 0.00 80 1012.3
20260906012300 76 225 0.0 0.0 0.00 0.00 0.00 81 1012.2
20260906012254 76 225 0.0 0.0 0.00 0.00 0.00 80 1012.4
20260906011754 76 225 0.0 0.0 0.00 0.00 0.00 80 1012.2
20260906010753 76 225 0.0 0.0 0.00 0.00 0.00 81 1012.1
20260906010254 76 226 0.0 1.0 0.00 0.00 0.00 81 1012.1
20260906005755 76 225 0.0 1.0 0.00 0.00 0.00 80 1011.9
20260906005253 76 225 0.0 0.0 0.00 0.00 0.00 80 1011.8
20260906004754 77 226 0.0 0.0 0.00 0.00 0.00 79 1011.9
20260906004254 77 226 0.0 0.0 0.00 0.00 0.00 79 1011.9
20260906003752 77 226 0.0 0.0 0.00 0.00 0.00 79 1011.8
20260906003252 77 226 0.0 0.0 0.00 0.00 0.00 78 1011.7
20260906002752 78 225 0.0 0.0 0.00 0.00 0.00 77 1011.7
20260906002251 78 225 0.0 0.0 0.00 0.00 0.00 77 1011.8
20260906001751 78 226 0.0 0.0 0.00 0.00 0.00 77 1011.7
20260906001251 78 226 0.0 0.0 0.00 0.00 0.00 76 1011.6
20260906000756 79 225 0.0 0.0 0.00 0.00 0.00 74 1011.6
20260906000752 79 225 0.0 0.0 0.00 0.00 0.00 75 1011.6
20260905235752 79 226 0.0 0.0 0.00 0.00 0.00 73 1011.5
20260905235249 80 225 0.0 0.0 0.00 0.00 0.00 71 1011.5
20260905234754 80 226 0.0 1.0 0.00 0.00 0.00 70 1011.4
20260905234750 80 225 0.0 1.0 0.00 0.00 0.00 71 1011.5
20260905233758 81 225 0.0 0.0 0.00 0.00 0.00 69 1011.1
20260905233749 80 226 0.0 0.0 0.00 0.00 0.00 69 1011.2
20260905233252 80 226 0.0 0.0 0.00 0.00 0.00 69 1011.2
20260905232908 81 226 0.0 0.0 0.00 0.00 0.00 68 1011.2
20260905231750 81 225 0.0 0.0 0.00 0.00 0.00 68 1011.3
20260905231249 81 226 0.0 0.0 0.00 0.00 0.00 68 1011.3
20260905230756 81 226 0.0 0.0 0.00 0.00 0.00 70 1011.4
20260905230748 81 226 0.0 0.0 0.00 0.00 0.00 67 1011.3
20260905230248 81 226 0.0 0.0 0.00 0.00 0.00 67 1011.4
20260905225748 81 225 0.0 0.0 0.00 0.00 0.00 69 1011.4
20260905224748 81 226 0.0 1.0 0.00 0.00 0.00 70 1011.5
20260905224246 81 225 0.0 1.0 0.00 0.00 0.00 72 1011.5
20260905223748 81 226 0.0 0.0 0.00 0.00 0.00 71 1011.5
20260905223248 81 226 0.0 0.0 0.00 0.00 0.00 71 1011.6
20260905222747 81 226 0.0 0.0 0.00 0.00 0.00 71 1011.5
20260905222246 81 225 0.0 0.0 0.00 0.00 0.00 70 1011.4
20260905221746 81 226 0.0 0.0 0.00 0.00 0.00 70 1011.4
20260905221245 81 226 0.0 1.0 0.00 0.00 0.00 70 1011.5
20260905220746 81 226 0.0 1.0 0.00 0.00 0.00 70 1011.7
20260905220246 81 225 0.0 0.0 0.00 0.00 0.00 71 1011.6
20260905215745 81 226 0.0 0.0 0.00 0.00 0.00 71 1011.5
20260905215246 81 226 0.0 1.0 0.00 0.00 0.00 71 1011.6
20260905214745 81 226 0.0 1.0 0.00 0.00 0.00 71 1011.6
20260905214251 81 225 0.0 0.0 0.00 0.00 0.00 70 1011.6
20260905214246 81 226 0.0 0.0 0.00 0.00 0.00 70 1011.7
20260905213244 82 225 0.0 0.0 0.00 0.00 0.00 70 1011.7
20260905212752 82 225 0.0 0.0 0.00 0.00 0.00 70 1012.2
20260905212745 82 226 0.0 0.0 0.00 0.00 0.00 70 1011.9
20260905211741 82 225 0.0 0.0 0.00 0.00 0.00 69 1012.2
20260905211248 81 131 0.0 0.0 0.00 0.00 0.00 70 1012.4
20260905211243 82 226 0.0 2.0 0.00 0.00 0.00 69 1012.3
20260905210741 81 226 0.0 2.0 0.00 0.00 0.00 69 1012.4
20260905205742 81 131 0.0 0.0 0.00 0.00 0.00 70 1012.3
20260905205241 81 131 0.0 0.0 0.00 0.00 0.00 70 1012.4
20260905204741 81 131 0.0 1.0 0.00 0.00 0.00 71 1012.2
20260905204242 81 131 0.0 1.0 0.00 0.00 0.00 73 1012.3
20260905203740 80 131 0.0 1.0 0.00 0.00 0.00 71 1012.2
20260905203238 80 263 0.0 1.0 0.00 0.00 0.00 70 1011.9
20260905202736 81 263 0.0 2.0 0.00 0.00 0.00 71 1011.9
20260905202237 81 263 0.0 2.0 0.00 0.00 0.00 71 1011.9
20260905201742 81 292 1.0 3.0 0.00 0.00 0.00 73 1012.3
20260905201737 81 292 1.0 3.0 0.00 0.00 0.00 72 1012.1
20260905200736 81 274 0.0 2.0 0.00 0.00 0.00 73 1012.2
20260905200238 81 239 0.0 3.0 0.00 0.00 0.00 73 1011.8
20260905195741 81 239 1.0 3.0 0.00 0.00 0.00 73 1011.8
20260905195736 81 239 0.0 3.0 0.00 0.00 0.00 72 1012.1
20260905194740 82 158 0.0 1.0 0.00 0.00 0.00 72 1011.8
20260905194735 81 179 0.0 0.0 0.00 0.00 0.00 72 1012.2
20260905193737 82 308 0.0 1.0 0.00 0.00 0.00 70 1011.8
20260905193236 83 308 1.0 3.0 0.00 0.00 0.00 68 1012.0
20260905192735 83 308 2.0 4.0 0.00 0.00 0.00 65 1012.4
20260905192233 85 306 3.0 6.0 0.00 0.00 0.00 58 1012.8
20260905191734 87 326 3.0 8.0 0.00 0.00 0.00 53 1012.8
20260905191234 89 316 2.0 8.0 0.00 0.00 0.00 50 1012.9
20260905190732 91 283 1.0 5.0 0.00 0.00 0.00 54 1012.6
20260905190230 91 94 0.0 1.0 0.00 0.00 0.00 53 1012.1
20260905185728 92 94 0.0 1.0 0.00 0.00 0.00 53 1012.0
20260905185230 92 94 0.0 0.0 0.00 0.00 0.00 53 1011.9
20260905184729 93 94 0.0 0.0 0.00 0.00 0.00 52 1011.9
20260905184227 94 94 0.0 0.0 0.00 0.00 0.00 51 1011.9
20260905183728 94 94 0.0 0.0 0.00 0.00 0.00 50 1011.8
20260905183226 95 94 0.0 1.0 0.00 0.00 0.00 49 1011.6
20260905182727 95 95 0.0 1.0 0.00 0.00 0.00 47 1011.6
20260905182225 96 94 0.0 1.0 0.00 0.00 0.00 45 1012.0
20260905181724 98 94 0.0 1.0 0.00 0.00 0.00 45 1011.9
20260905181222 98 94 0.0 0.0 0.00 0.00 0.00 45 1012.0
20260905180722 99 95 0.0 2.0 0.00 0.00 0.00 41 1012.0
20260905180226 100 210 0.0 1.0 0.00 0.00 0.00 38 1012.1
20260905180222 100 117 0.0 2.0 0.00 0.00 0.00 43 1012.0
20260905175224 101 227 0.0 1.0 0.00 0.00 0.00 39 1012.2
20260905174729 101 229 0.0 2.0 0.00 0.00 0.00 42 1012.3
20260905174724 102 141 0.0 1.0 0.00 0.00 0.00 40 1012.2
20260905173724 101 229 1.0 3.0 0.00 0.00 0.00 38 1012.4
20260905173223 101 324 0.0 3.0 0.00 0.00 0.00 40 1012.5
20260905172724 101 123 0.0 3.0 0.00 0.00 0.00 41 1012.6
20260905172223 100 89 1.0 3.0 0.00 0.00 0.00 43 1012.6
20260905171722 100 141 1.0 4.0 0.00 0.00 0.00 42 1012.7
20260905171228 101 134 0.0 3.0 0.00 0.00 0.00 42 1012.8
20260905171223 101 122 1.0 4.0 0.00 0.00 0.00 40 1012.7
20260905170223 101 321 0.0 1.0 0.00 0.00 0.00 42 1013.0
20260905165722 101 30 0.0 1.0 0.00 0.00 0.00 42 1013.0
20260905165223 100 56 0.0 5.0 0.00 0.00 0.00 43 1013.1
20260905164724 100 105 0.0 5.0 0.00 0.00 0.00 46 1013.2
20260905164223 100 77 0.0 3.0 0.00 0.00 0.00 44 1013.2
20260905163722 99 139 0.0 1.0 0.00 0.00 0.00 47 1013.3
20260905163223 99 139 0.0 2.0 0.00 0.00 0.00 47 1013.4
20260905162721 98 283 0.0 2.0 0.00 0.00 0.00 45 1013.5
20260905162218 98 250 0.0 2.0 0.00 0.00 0.00 46 1013.4
20260905161718 98 231 0.0 2.0 0.00 0.00 0.00 48 1013.5
20260905161217 98 92 0.0 2.0 0.00 0.00 0.00 48 1013.6
20260905160713 97 252 0.0 2.0 0.00 0.00 0.00 49 1013.6
20260905160218 96 252 0.0 0.0 0.00 0.00 0.00 50 1013.6
20260905160213 97 252 0.0 1.0 0.00 0.00 0.00 48 1013.6
20260905155212 96 252 0.0 0.0 0.00 0.00 0.00 49 1013.7
20260905154712 96 188 0.0 1.0 0.00 0.00 0.00 49 1013.8
20260905154214 96 188 0.0 1.0 0.00 0.00 0.00 50 1013.8
20260905153713 95 248 0.0 2.0 0.00 0.00 0.00 51 1013.8
20260905153212 94 249 0.0 2.0 0.00 0.00 0.00 52 1013.8
20260905152713 94 211 1.0 4.0 0.00 0.00 0.00 53 1013.9
20260905152212 94 234 1.0 4.0 0.00 0.00 0.00 51 1013.9
20260905151715 93 256 1.0 5.0 0.00 0.00 0.00 55 1013.9
20260905151214 93 158 2.0 5.0 0.00 0.00 0.00 53 1013.8
20260905150715 93 257 1.0 5.0 0.00 0.00 0.00 53 1013.9
20260905150711 93 243 2.0 5.0 0.00 0.00 0.00 54 1013.8
20260905145708 93 239 0.0 2.0 0.00 0.00 0.00 55 1013.9
20260905145208 92 138 0.0 0.0 0.00 0.00 0.00 55 1013.9
20260905144714 92 238 0.0 3.0 0.00 0.00 0.00 58 1014.0
20260905144708 92 238 0.0 0.0 0.00 0.00 0.00 57 1014.0
20260905143708 91 238 0.0 3.0 0.00 0.00 0.00 58 1014.0
20260905143206 91 234 0.0 2.0 0.00 0.00 0.00 60 1014.1
20260905142706 91 239 0.0 2.0 0.00 0.00 0.00 61 1014.1
20260905142211 89 213 0.0 3.0 0.00 0.00 0.00 67 1014.1
20260905142206 91 245 0.0 2.0 0.00 0.00 0.00 63 1014.1
20260905141706 90 245 0.0 0.0 0.00 0.00 0.00 63 1014.1
20260905141324 89 213 0.0 3.0 0.00 0.00 0.00 65 1014.3
20260905140205 89 180 0.0 1.0 0.00 0.00 0.00 65 1014.2
20260905135705 88 225 0.0 1.0 0.00 0.00 0.00 67 1014.3
20260905135205 87 242 0.0 0.0 0.00 0.00 0.00 69 1014.3
20260905134704 87 242 0.0 0.0 0.00 0.00 0.00 69 1014.3
20260905134204 87 242 0.0 2.0 0.00 0.00 0.00 69 1014.4
20260905133704 86 242 0.0 2.0 0.00 0.00 0.00 70 1014.4
20260905133205 86 221 0.0 0.0 0.00 0.00 0.00 72 1014.5
20260905132705 85 240 0.0 0.0 0.00 0.00 0.00 72 1014.4
20260905132202 85 240 0.0 0.0 0.00 0.00 0.00 73 1014.4
20260905131702 84 240 0.0 0.0 0.00 0.00 0.00 75 1014.4
20260905131202 84 240 0.0 0.0 0.00 0.00 0.00 75 1014.5
20260905130704 83 240 0.0 0.0 0.00 0.00 0.00 75 1014.5
20260905130203 83 240 0.0 0.0 0.00 0.00 0.00 78 1014.5
20260905125707 81 240 0.0 0.0 0.00 0.00 0.00 79 1014.3
20260905125703 82 240 0.0 0.0 0.00 0.00 0.00 79 1014.4
20260905124704 81 240 0.0 0.0 0.00 0.00 0.00 80 1014.2
20260905124203 80 240 0.0 1.0 0.00 0.00 0.00 82 1014.3
20260905123706 79 240 0.0 1.0 0.00 0.00 0.00 83 1014.3
20260905123702 79 240 0.0 1.0 0.00 0.00 0.00 82 1014.2
20260905123320 78 240 0.0 1.0 0.00 0.00 0.00 84 1014.2
20260905122201 77 240 0.0 0.0 0.00 0.00 0.00 86 1014.2
20260905121705 76 240 0.0 0.0 0.00 0.00 0.00 88 1014.3
20260905121701 76 240 0.0 0.0 0.00 0.00 0.00 88 1014.3
20260905120706 75 240 0.0 0.0 0.00 0.00 0.00 89 1014.2
20260905120701 75 240 0.0 0.0 0.00 0.00 0.00 89 1014.2
20260905115701 75 240 0.0 0.0 0.00 0.00 0.00 89 1014.2
20260905115201 74 240 0.0 0.0 0.00 0.00 0.00 89 1014.2
20260905114701 74 240 0.0 0.0 0.00 0.00 0.00 89 1014.1
20260905114158 74 240 0.0 0.0 0.00 0.00 0.00 89 1014.0
20260905113658 74 240 0.0 0.0 0.00 0.00 0.00 89 1014.0
20260905113157 74 240 0.0 0.0 0.00 0.00 0.00 89 1013.9
20260905112658 74 240 0.0 0.0 0.00 0.00 0.00 89 1013.8
20260905112159 74 240 0.0 0.0 0.00 0.00 0.00 89 1013.8
20260905111659 74 240 0.0 0.0 0.00 0.00 0.00 89 1013.7
20260905111159 74 240 0.0 0.0 0.00 0.00 0.00 90 1013.6
20260905110657 74 240 0.0 0.0 0.00 0.00 0.00 90 1013.5
20260905110159 74 240 0.0 0.0 0.00 0.00 0.00 89 1013.5
20260905105659 74 240 0.0 0.0 0.00 0.00 0.00 89 1013.4
20260905105203 74 240 0.0 0.0 0.00 0.00 0.00 89 1013.4
20260905105159 74 240 0.0 0.0 0.00 0.00 0.00 89 1013.4
20260905104158 74 240 0.0 0.0 0.00 0.00 0.00 89 1013.3
20260905103659 74 240 0.0 0.0 0.00 0.00 0.00 89 1013.2
20260905103159 74 240 0.0 0.0 0.00 0.00 0.00 89 1013.2
20260905102659 74 240 0.0 0.0 0.00 0.00 0.00 88 1013.1
20260905102158 74 240 0.0 0.0 0.00 0.00 0.00 88 1013.1
20260905101706 74 240 0.0 0.0 0.00 0.00 0.00 87 1013.0
20260905101658 74 240 0.0 0.0 0.00 0.00 0.00 88 1013.0
20260905101159 74 240 0.0 0.0 0.00 0.00 0.00 87 1013.0
20260905100157 74 240 0.0 0.0 0.00 0.00 0.00 87 1012.9
20260905095657 74 240 0.0 0.0 0.00 0.00 0.00 87 1012.9
20260905095157 75 240 0.0 0.0 0.00 0.00 0.00 87 1013.0
20260905094658 75 240 0.0 0.0 0.00 0.00 0.00 86 1013.0
20260905094156 75 240 0.0 0.0 0.00 0.00 0.00 86 1013.0
20260905093657 75 240 0.0 0.0 0.00 0.00 0.00 85 1012.9
20260905093155 75 240 0.0 0.0 0.00 0.00 0.00 86 1012.9
20260905092657 75 240 0.0 1.0 0.00 0.00 0.00 86 1013.0
20260905092155 75 240 0.0 1.0 0.00 0.00 0.00 86 1013.0
20260905091654 75 240 0.0 0.0 0.00 0.00 0.00 87 1013.0
20260905091155 74 240 0.0 0.0 0.00 0.00 0.00 87 1013.1
20260905090655 75 240 0.0 0.0 0.00 0.00 0.00 87 1013.1
20260905090159 74 240 0.0 1.0 0.00 0.00 0.00 88 1013.1
20260905090155 75 240 0.0 1.0 0.00 0.00 0.00 87 1013.0
20260905085154 74 240 0.0 1.0 0.00 0.00 0.00 89 1013.2
20260905084654 74 148 0.0 0.0 0.00 0.00 0.00 88 1013.2
20260905084155 74 148 0.0 0.0 0.00 0.00 0.00 88 1013.3
20260905083700 74 148 0.0 0.0 0.00 0.00 0.00 87 1013.4
20260905083655 74 148 0.0 0.0 0.00 0.00 0.00 88 1013.3
20260905082651 74 148 0.0 0.0 0.00 0.00 0.00 87 1013.4
20260905082153 74 148 0.0 0.0 0.00 0.00 0.00 87 1013.4
20260905081652 74 148 0.0 0.0 0.00 0.00 0.00 87 1013.4
20260905081152 74 148 0.0 0.0 0.00 0.00 0.00 87 1013.4
20260905080651 74 148 0.0 0.0 0.00 0.00 0.00 87 1013.5
20260905080157 74 148 0.0 0.0 0.00 0.00 0.00 87 1013.5
20260905080151 74 148 0.0 0.0 0.00 0.00 0.00 87 1013.4
20260905075153 74 148 0.0 0.0 0.00 0.00 0.00 87 1013.6
20260905074650 74 148 0.0 0.0 0.00 0.00 0.00 87 1013.6
20260905074151 75 148 0.0 0.0 0.00 0.00 0.00 87 1013.6
20260905073650 75 148 0.0 0.0 0.00 0.00 0.00 86 1013.8
20260905073150 75 148 0.0 0.0 0.00 0.00 0.00 86 1013.8
20260905072650 75 148 0.0 0.0 0.00 0.00 0.00 86 1013.8
20260905072150 75 148 0.0 0.0 0.00 0.00 0.00 86 1013.8
20260905071650 75 148 0.0 0.0 0.00 0.00 0.00 86 1013.9
20260905071150 75 148 0.0 0.0 0.00 0.00 0.00 86 1013.9
20260905070651 75 148 0.0 0.0 0.00 0.00 0.00 86 1013.9
20260905070149 76 148 0.0 0.0 0.00 0.00 0.00 86 1013.9
20260905065650 76 148 0.0 0.0 0.00 0.00 0.00 86 1013.9
20260905065150 76 148 0.0 0.0 0.00 0.00 0.00 86 1013.9
20260905064650 76 148 0.0 0.0 0.00 0.00 0.00 86 1014.1
20260905064150 76 148 0.0 0.0 0.00 0.00 0.00 85 1014.0
20260905063649 76 148 0.0 0.0 0.00 0.00 0.00 85 1014.0
20260905063151 76 148 0.0 0.0 0.00 0.00 0.00 85 1014.0
20260905062650 76 148 0.0 0.0 0.00 0.00 0.00 85 1014.1
20260905062151 76 148 0.0 0.0 0.00 0.00 0.00 85 1014.1
20260905061650 76 148 0.0 0.0 0.00 0.00 0.00 84 1014.2
20260905061149 76 148 0.0 0.0 0.00 0.00 0.00 84 1014.2
20260905060655 77 148 0.0 0.0 0.00 0.00 0.00 84 1014.4
20260905060651 77 148 0.0 0.0 0.00 0.00 0.00 84 1014.2
20260905055649 77 148 0.0 0.0 0.00 0.00 0.00 83 1014.3
20260905055155 77 148 0.0 0.0 0.00 0.00 0.00 82 1014.5
20260905055149 77 148 0.0 0.0 0.00 0.00 0.00 83 1014.4
20260905054149 77 148 0.0 0.0 0.00 0.00 0.00 83 1014.5
20260905053652 78 148 0.0 0.0 0.00 0.00 0.00 82 1014.6
20260905053646 78 148 0.0 0.0 0.00 0.00 0.00 83 1014.6
20260905052647 78 148 0.0 0.0 0.00 0.00 0.00 82 1014.5
20260905052147 78 148 0.0 0.0 0.00 0.00 0.00 82 1014.5
20260905051647 78 148 0.0 0.0 0.00 0.00 0.00 81 1014.6
20260905051152 78 148 0.0 0.0 0.00 0.00 0.00 82 1014.4
20260905051148 78 148 0.0 0.0 0.00 0.00 0.00 82 1014.5
20260905050148 78 148 0.0 0.0 0.00 0.00 0.00 82 1014.3
20260905045808 78 148 0.0 0.0 0.00 0.00 0.00 82 1014.4
20260905045650 78 148 0.0 0.0 0.00 0.00 0.00 82 1014.6
20260905045645 78 148 0.0 0.0 0.00 0.00 0.00 81 1014.5
20260905044145 78 148 0.0 0.0 0.00 0.00 0.00 82 1014.4
20260905043647 78 148 0.0 0.0 0.00 0.00 0.00 82 1014.3
20260905043143 78 148 0.0 0.0 0.00 0.00 0.00 81 1014.3
20260905042643 78 148 0.0 0.0 0.00 0.00 0.00 81 1014.4
20260905042143 78 148 0.0 0.0 0.00 0.00 0.00 82 1014.5
20260905041645 78 148 0.0 0.0 0.00 0.00 0.00 82 1014.5
20260905041142 79 148 0.0 0.0 0.00 0.00 0.00 81 1014.3
20260905040646 79 148 0.0 0.0 0.00 0.00 0.00 80 1014.3
20260905040641 79 148 0.0 0.0 0.00 0.00 0.00 81 1014.2
20260905040300 79 148 0.0 0.0 0.00 0.00 0.00 80 1014.4